This is the latest recevied weather packets stored in our database for station/object WA0LM. If no packets are shown the sender has not sent any weather packets the latest 10 day(s).
| Time | Temp. | Humidity | Pressure | Rain* | Wind** | Luminosity | Snow |
|---|---|---|---|---|---|---|---|
| 1777417006 | 9.44° C | 50% | 1014.5 hPa | 0 mm | - | 266 W/m² | - |
| 1777416701 | 9.44° C | 61% | 1014.4 hPa | 0 mm | - | 309 W/m² | - |
| 1777416398 | 9.44° C | 56% | 1014.3 hPa | 0 mm | - | 322 W/m² | - |
| 1777416098 | 9.44° C | 53% | 1014.5 hPa | 0 mm | - | 319 W/m² | - |
| 1777415792 | 9.44° C | 52% | 1014.3 hPa | 0 mm | - | 361 W/m² | - |
| 1777415488 | 9.44° C | 53% | 1014.2 hPa | 0 mm | - | 301 W/m² | - |
| 1777415185 | 8.89° C | 60% | 1014.4 hPa | 0 mm | - | 443 W/m² | - |
| 1777414880 | 9.44° C | 57% | 1014.3 hPa | 0 mm | - | 356 W/m² | - |
| 1777414579 | 9.44° C | 55% | 1014.1 hPa | 0 mm | - | 155 W/m² | - |
| 1777414274 | 9.44° C | 54% | 1014.2 hPa | 0 mm | - | 175 W/m² | - |
| 1777413969 | 10° C | 50% | 1014 hPa | 0 mm | - | 430 W/m² | - |
| 1777413665 | 10° C | 52% | 1014.2 hPa | 0 mm | - | 470 W/m² | - |
| 1777413361 | 10° C | 54% | 1014.1 hPa | 0 mm | - | 115 W/m² | - |
| 1777413057 | 9.44° C | 54% | 1014.1 hPa | 0 mm | - | 484 W/m² | - |
| 1777412752 | 10° C | 51% | 1014.1 hPa | 0 mm | - | 471 W/m² | - |
| 1777412450 | 10° C | 53% | 1014 hPa | 0 mm | - | 479 W/m² | - |
| 1777412149 | 10° C | 51% | 1014 hPa | 0 mm | - | 483 W/m² | - |
| 1777411844 | 10° C | 52% | 1014.1 hPa | 0 mm | - | 378 W/m² | - |
| 1777411543 | 10° C | 49% | 1014.1 hPa | 0 mm | - | 238 W/m² | - |
| 1777411232 | 9.44° C | 50% | 1014.2 hPa | 0 mm | - | 511 W/m² | - |
| 1777410926 | 10° C | 49% | 1014 hPa | 0 mm | - | 578 W/m² | - |
| 1777410626 | 10° C | 50% | 1014.1 hPa | 0 mm | - | 533 W/m² | - |
| 1777410322 | 10° C | 51% | 1014.1 hPa | 0 mm | - | 619 W/m² | - |
| 1777410015 | 9.44° C | 51% | 1014.3 hPa | 0 mm | - | 318 W/m² | - |
| 1777409711 | 10° C | 50% | 1014.1 hPa | 0 mm | - | 520 W/m² | - |
* Rain latest hour (hover to see other rain measurements)
** Current wind speed in m/s (hover to see current wind gust speed)